| time (UTC) | temp F | wind direction | speed MPH | gust MPH | rain 1hr in | rain 24hr in | rain mn in | humidity % | barometer mb |
| 20260904003258 | 83 | 139 | 0.0 | 1.0 | 0.00 | 0.00 | 0.00 | 82 | 1021.8 |
| 20260904002753 | 83 | 148 | 2.0 | 3.0 | 0.00 | 0.00 | 0.00 | 81 | 1022.0 |
| 20260904002250 | 83 | 146 | 2.0 | 3.0 | 0.00 | 0.00 | 0.00 | 81 | 1022.0 |
| 20260904001749 | 84 | 153 | 2.0 | 3.0 | 0.00 | 0.00 | 0.00 | 80 | 1022.1 |
| 20260904001244 | 84 | 131 | 1.0 | 2.0 | 0.00 | 0.00 | 0.00 | 80 | 1022.1 |
| 20260904000739 | 84 | 142 | 2.0 | 3.0 | 0.00 | 0.00 | 0.00 | 80 | 1021.8 |
| 20260904000234 | 84 | 139 | 1.0 | 2.0 | 0.00 | 0.00 | 0.00 | 79 | 1021.8 |
| 20260903235734 | 84 | 128 | 1.0 | 3.0 | 0.00 | 0.00 | 0.00 | 78 | 1021.6 |
| 20260903235230 | 85 | 130 | 2.0 | 3.0 | 0.00 | 0.00 | 0.00 | 77 | 1021.7 |
| 20260903234729 | 85 | 145 | 2.0 | 5.0 | 0.00 | 0.00 | 0.00 | 76 | 1021.7 |
| 20260903234226 | 85 | 137 | 1.0 | 5.0 | 0.00 | 0.00 | 0.00 | 76 | 1021.4 |
| 20260903233721 | 86 | 123 | 4.0 | 6.0 | 0.00 | 0.00 | 0.00 | 75 | 1021.6 |
| 20260903233217 | 86 | 145 | 2.0 | 8.0 | 0.00 | 0.00 | 0.00 | 75 | 1021.4 |
| 20260903232716 | 86 | 138 | 3.0 | 6.0 | 0.00 | 0.00 | 0.00 | 74 | 1021.2 |
| 20260903232212 | 87 | 136 | 5.0 | 5.0 | 0.00 | 0.00 | 0.00 | 74 | 1021.2 |
| 20260903231711 | 87 | 98 | 5.0 | 7.0 | 0.00 | 0.00 | 0.00 | 73 | 1021.5 |
| 20260903231206 | 87 | 145 | 2.0 | 6.0 | 0.00 | 0.00 | 0.00 | 72 | 1021.0 |
| 20260903230702 | 87 | 165 | 3.0 | 5.0 | 0.00 | 0.00 | 0.00 | 72 | 1021.4 |
| 20260903230202 | 88 | 162 | 2.0 | 5.0 | 0.00 | 0.00 | 0.00 | 71 | 1021.2 |
| 20260903225658 | 88 | 149 | 3.0 | 7.0 | 0.00 | 0.00 | 0.00 | 70 | 1021.3 |
| 20260903225154 | 88 | 179 | 4.0 | 5.0 | 0.00 | 0.00 | 0.00 | 70 | 1021.3 |
| 20260903224650 | 88 | 136 | 7.0 | 9.0 | 0.00 | 0.00 | 0.00 | 69 | 1021.3 |
| 20260903224147 | 88 | 112 | 5.0 | 8.0 | 0.00 | 0.00 | 0.00 | 69 | 1021.3 |
| 20260903223641 | 88 | 140 | 4.0 | 9.0 | 0.00 | 0.00 | 0.00 | 69 | 1021.5 |
| 20260903223140 | 89 | 131 | 6.0 | 10.0 | 0.00 | 0.00 | 0.00 | 69 | 1021.4 |
| 20260903222635 | 89 | 158 | 5.0 | 8.0 | 0.00 | 0.00 | 0.00 | 69 | 1021.2 |
| 20260903222134 | 89 | 161 | 4.0 | 7.0 | 0.00 | 0.00 | 0.00 | 70 | 1021.3 |
| 20260903221629 | 89 | 160 | 5.0 | 6.0 | 0.00 | 0.00 | 0.00 | 69 | 1021.3 |
| 20260903221127 | 89 | 110 | 3.0 | 8.0 | 0.00 | 0.00 | 0.00 | 70 | 1021.5 |
| 20260903220621 | 89 | 162 | 4.0 | 8.0 | 0.00 | 0.00 | 0.00 | 69 | 1021.2 |
| 20260903220120 | 90 | 138 | 9.0 | 10.0 | 0.00 | 0.00 | 0.00 | 67 | 1021.3 |
| 20260903215620 | 91 | 142 | 4.0 | 17.0 | 0.00 | 0.00 | 0.00 | 66 | 1021.2 |
| 20260903215114 | 91 | 127 | 7.0 | 8.0 | 0.00 | 0.00 | 0.00 | 62 | 1021.3 |
| 20260903214613 | 91 | 154 | 4.0 | 8.0 | 0.00 | 0.00 | 0.00 | 63 | 1021.4 |
| 20260903214109 | 91 | 130 | 4.0 | 10.0 | 0.00 | 0.00 | 0.00 | 63 | 1021.4 |
| 20260903213604 | 91 | 179 | 5.0 | 10.0 | 0.00 | 0.00 | 0.00 | 60 | 1021.2 |
| 20260903213100 | 92 | 174 | 6.0 | 10.0 | 0.00 | 0.00 | 0.00 | 59 | 1021.2 |
| 20260903212555 | 91 | 109 | 6.0 | 8.0 | 0.00 | 0.00 | 0.00 | 59 | 1021.2 |
| 20260903212050 | 92 | 144 | 5.0 | 11.0 | 0.00 | 0.00 | 0.00 | 60 | 1021.2 |
| 20260903211545 | 92 | 94 | 7.0 | 9.0 | 0.00 | 0.00 | 0.00 | 57 | 1021.1 |
| 20260903211037 | 92 | 159 | 7.0 | 10.0 | 0.00 | 0.00 | 0.00 | 57 | 1021.3 |
| 20260903210536 | 92 | 158 | 7.0 | 9.0 | 0.00 | 0.00 | 0.00 | 55 | 1021.2 |
| 20260903210032 | 92 | 94 | 9.0 | 13.0 | 0.00 | 0.00 | 0.00 | 56 | 1021.4 |
| 20260903205525 | 92 | 148 | 4.0 | 10.0 | 0.00 | 0.00 | 0.00 | 55 | 1021.4 |
| 20260903205020 | 92 | 153 | 8.0 | 14.0 | 0.00 | 0.00 | 0.00 | 54 | 1021.2 |
| 20260903204516 | 93 | 123 | 5.0 | 9.0 | 0.00 | 0.00 | 0.00 | 53 | 1021.4 |
| 20260903204012 | 93 | 126 | 6.0 | 10.0 | 0.00 | 0.00 | 0.00 | 55 | 1021.4 |
| 20260903203507 | 93 | 102 | 5.0 | 6.0 | 0.00 | 0.00 | 0.00 | 53 | 1021.3 |
| 20260903203006 | 93 | 108 | 6.0 | 9.0 | 0.00 | 0.00 | 0.00 | 54 | 1021.4 |
| 20260903202503 | 93 | 87 | 7.0 | 9.0 | 0.00 | 0.00 | 0.00 | 53 | 1021.4 |
| 20260903201958 | 93 | 139 | 4.0 | 10.0 | 0.00 | 0.00 | 0.00 | 53 | 1021.5 |
| 20260903201452 | 94 | 89 | 4.0 | 8.0 | 0.00 | 0.00 | 0.00 | 53 | 1021.7 |
| 20260903200951 | 93 | 91 | 7.0 | 8.0 | 0.00 | 0.00 | 0.00 | 52 | 1021.6 |
| 20260903200447 | 93 | 121 | 3.0 | 8.0 | 0.00 | 0.00 | 0.00 | 54 | 1021.7 |
| 20260903195941 | 92 | 75 | 5.0 | 7.0 | 0.00 | 0.00 | 0.00 | 54 | 1022.0 |
| 20260903195437 | 93 | 107 | 5.0 | 9.0 | 0.00 | 0.00 | 0.00 | 56 | 1021.6 |
| 20260903194932 | 92 | 147 | 4.0 | 10.0 | 0.00 | 0.00 | 0.00 | 59 | 1021.8 |
| 20260903194428 | 93 | 195 | 6.0 | 9.0 | 0.00 | 0.00 | 0.00 | 60 | 1022.0 |
| 20260903193923 | 93 | 110 | 5.0 | 8.0 | 0.00 | 0.00 | 0.00 | 55 | 1021.9 |
| 20260903193419 | 93 | 109 | 1.0 | 2.0 | 0.00 | 0.00 | 0.00 | 58 | 1021.8 |
| 20260903192914 | 92 | 123 | 9.0 | 10.0 | 0.00 | 0.00 | 0.00 | 56 | 1022.0 |
| 20260903192411 | 93 | 122 | 3.0 | 6.0 | 0.00 | 0.00 | 0.00 | 55 | 1022.1 |
| 20260903191906 | 92 | 146 | 5.0 | 5.0 | 0.00 | 0.00 | 0.00 | 60 | 1022.0 |
| 20260903191403 | 93 | 96 | 4.0 | 6.0 | 0.00 | 0.00 | 0.00 | 57 | 1022.2 |
| 20260903190901 | 93 | 178 | 5.0 | 9.0 | 0.00 | 0.00 | 0.00 | 56 | 1022.1 |
| 20260903190355 | 92 | 155 | 2.0 | 8.0 | 0.00 | 0.00 | 0.00 | 58 | 1022.2 |
| 20260903185855 | 91 | 150 | 3.0 | 9.0 | 0.00 | 0.00 | 0.00 | 58 | 1022.4 |
| 20260903185350 | 92 | 84 | 5.0 | 7.0 | 0.00 | 0.00 | 0.00 | 56 | 1022.2 |
| 20260903184846 | 92 | 169 | 7.0 | 10.0 | 0.00 | 0.00 | 0.00 | 61 | 1022.3 |
| 20260903184343 | 92 | 185 | 6.0 | 9.0 | 0.00 | 0.00 | 0.00 | 59 | 1022.1 |
| 20260903183832 | 91 | 100 | 4.0 | 10.0 | 0.00 | 0.00 | 0.00 | 62 | 1022.3 |
| 20260903183327 | 91 | 108 | 7.0 | 9.0 | 0.00 | 0.00 | 0.00 | 62 | 1022.6 |
| 20260903182826 | 91 | 121 | 4.0 | 6.0 | 0.00 | 0.00 | 0.00 | 60 | 1022.6 |
| 20260903182325 | 92 | 118 | 7.0 | 10.0 | 0.00 | 0.00 | 0.00 | 61 | 1022.5 |
| 20260903181820 | 92 | 180 | 5.0 | 7.0 | 0.00 | 0.00 | 0.00 | 63 | 1022.8 |
| 20260903181314 | 91 | 159 | 4.0 | 7.0 | 0.00 | 0.00 | 0.00 | 65 | 1022.5 |
| 20260903180814 | 91 | 76 | 2.0 | 5.0 | 0.00 | 0.00 | 0.00 | 64 | 1022.6 |
| 20260903180314 | 91 | 162 | 7.0 | 14.0 | 0.00 | 0.00 | 0.00 | 66 | 1022.7 |
| 20260903175813 | 91 | 141 | 5.0 | 8.0 | 0.00 | 0.00 | 0.00 | 66 | 1022.8 |
| 20260903175313 | 90 | 164 | 4.0 | 5.0 | 0.00 | 0.00 | 0.00 | 69 | 1023.0 |
| 20260903174807 | 89 | 118 | 5.0 | 9.0 | 0.00 | 0.00 | 0.00 | 65 | 1023.1 |
| 20260903174302 | 91 | 154 | 7.0 | 9.0 | 0.00 | 0.00 | 0.00 | 65 | 1023.1 |
| 20260903173757 | 92 | 181 | 3.0 | 11.0 | 0.00 | 0.00 | 0.00 | 61 | 1023.2 |
| 20260903173253 | 91 | 74 | 3.0 | 5.0 | 0.00 | 0.00 | 0.00 | 65 | 1023.2 |
| 20260903172748 | 91 | 134 | 7.0 | 13.0 | 0.00 | 0.00 | 0.00 | 64 | 1023.1 |
| 20260903172243 | 90 | 139 | 1.0 | 8.0 | 0.00 | 0.00 | 0.00 | 67 | 1023.3 |
| 20260903171738 | 89 | 168 | 2.0 | 8.0 | 0.00 | 0.00 | 0.00 | 68 | 1023.4 |
| 20260903171234 | 88 | 124 | 0.0 | 9.0 | 0.00 | 0.00 | 0.00 | 70 | 1023.3 |
| 20260903170732 | 89 | 134 | 2.0 | 7.0 | 0.00 | 0.00 | 0.00 | 70 | 1023.4 |
| 20260903170228 | 89 | 126 | 3.0 | 7.0 | 0.00 | 0.00 | 0.00 | 68 | 1023.5 |
| 20260903165726 | 88 | 131 | 3.0 | 5.0 | 0.00 | 0.00 | 0.00 | 70 | 1023.6 |
| 20260903165221 | 91 | 196 | 3.0 | 5.0 | 0.00 | 0.00 | 0.00 | 69 | 1023.9 |
| 20260903164715 | 90 | 126 | 2.0 | 5.0 | 0.00 | 0.00 | 0.00 | 69 | 1023.5 |
| 20260903164212 | 90 | 71 | 3.0 | 5.0 | 0.00 | 0.00 | 0.00 | 69 | 1023.7 |
| 20260903163711 | 90 | 77 | 1.0 | 3.0 | 0.00 | 0.00 | 0.00 | 71 | 1024.0 |
| 20260903163208 | 89 | 27 | 3.0 | 3.0 | 0.00 | 0.00 | 0.00 | 72 | 1023.6 |
| 20260903162703 | 90 | 108 | 2.0 | 5.0 | 0.00 | 0.00 | 0.00 | 72 | 1023.7 |
| 20260903162159 | 89 | 51 | 2.0 | 5.0 | 0.00 | 0.00 | 0.00 | 74 | 1023.8 |
| 20260903161654 | 89 | 96 | 1.0 | 1.0 | 0.00 | 0.00 | 0.00 | 73 | 1024.0 |
| 20260903161149 | 90 | 101 | 5.0 | 6.0 | 0.00 | 0.00 | 0.00 | 73 | 1024.0 |
| 20260903160645 | 89 | 107 | 1.0 | 3.0 | 0.00 | 0.00 | 0.00 | 72 | 1024.0 |
| 20260903160139 | 89 | 163 | 0.0 | 2.0 | 0.00 | 0.00 | 0.00 | 76 | 1024.0 |
| 20260903155638 | 88 | 111 | 1.0 | 3.0 | 0.00 | 0.00 | 0.00 | 76 | 1024.1 |
| 20260903155133 | 88 | 199 | 1.0 | 2.0 | 0.00 | 0.00 | 0.00 | 77 | 1024.2 |
| 20260903154629 | 88 | 102 | 2.0 | 5.0 | 0.00 | 0.00 | 0.00 | 78 | 1024.1 |
| 20260903154125 | 87 | 83 | 3.0 | 3.0 | 0.00 | 0.00 | 0.00 | 77 | 1024.2 |
| 20260903153620 | 87 | 88 | 1.0 | 3.0 | 0.00 | 0.00 | 0.00 | 77 | 1024.2 |
| 20260903153116 | 86 | 147 | 3.0 | 7.0 | 0.00 | 0.00 | 0.00 | 80 | 1024.0 |
| 20260903152612 | 86 | 132 | 1.0 | 3.0 | 0.00 | 0.00 | 0.00 | 77 | 1024.1 |
| 20260903152108 | 86 | 165 | 1.0 | 3.0 | 0.00 | 0.00 | 0.00 | 80 | 1024.3 |
| 20260903151607 | 86 | 93 | 2.0 | 5.0 | 0.00 | 0.00 | 0.00 | 79 | 1024.2 |
| 20260903151103 | 87 | 81 | 1.0 | 3.0 | 0.00 | 0.00 | 0.00 | 79 | 1024.2 |
| 20260903150602 | 86 | 81 | 2.0 | 3.0 | 0.00 | 0.00 | 0.00 | 81 | 1024.2 |
| 20260903150058 | 86 | 122 | 1.0 | 2.0 | 0.00 | 0.00 | 0.00 | 82 | 1024.1 |
| 20260903145557 | 85 | 91 | 1.0 | 3.0 | 0.00 | 0.00 | 0.00 | 83 | 1024.3 |
| 20260903145052 | 84 | 98 | 2.0 | 2.0 | 0.00 | 0.00 | 0.00 | 85 | 1024.0 |
| 20260903144551 | 84 | 105 | 2.0 | 2.0 | 0.00 | 0.00 | 0.00 | 86 | 1024.0 |
| 20260903144048 | 84 | 106 | 1.0 | 3.0 | 0.00 | 0.00 | 0.00 | 87 | 1024.2 |
| 20260903143544 | 83 | 30 | 3.0 | 3.0 | 0.00 | 0.00 | 0.00 | 89 | 1024.2 |
| 20260903143039 | 83 | 111 | 2.0 | 3.0 | 0.00 | 0.00 | 0.00 | 89 | 1024.0 |
| 20260903142534 | 82 | 130 | 0.0 | 3.0 | 0.00 | 0.00 | 0.00 | 91 | 1024.0 |
| 20260903142031 | 81 | 120 | 0.0 | 1.0 | 0.00 | 0.00 | 0.00 | 93 | 1023.9 |
| 20260903141526 | 81 | 113 | 0.0 | 1.0 | 0.00 | 0.00 | 0.00 | 93 | 1024.2 |
| 20260903141021 | 80 | 108 | 1.0 | 2.0 | 0.00 | 0.00 | 0.00 | 94 | 1024.0 |
| 20260903140517 | 80 | 86 | 1.0 | 2.0 | 0.00 | 0.00 | 0.00 | 95 | 1024.1 |
| 20260903140012 | 80 | 78 | 2.0 | 2.0 | 0.00 | 0.00 | 0.00 | 95 | 1024.3 |
| 20260903135508 | 80 | 106 | 1.0 | 2.0 | 0.00 | 0.00 | 0.00 | 96 | 1024.1 |
| 20260903135002 | 80 | 124 | 2.0 | 2.0 | 0.00 | 0.00 | 0.00 | 96 | 1024.2 |
| 20260903134501 | 79 | 152 | 0.0 | 1.0 | 0.00 | 0.00 | 0.00 | 97 | 1024.3 |
| 20260903133958 | 79 | 116 | 1.0 | 1.0 | 0.00 | 0.00 | 0.00 | 98 | 1024.2 |
| 20260903133455 | 78 | 111 | 1.0 | 3.0 | 0.00 | 0.00 | 0.00 | 98 | 1024.2 |
| 20260903132950 | 78 | 72 | 2.0 | 2.0 | 0.00 | 0.00 | 0.00 | 99 | 1024.4 |
| 20260903132445 | 78 | 114 | 1.0 | 2.0 | 0.00 | 0.00 | 0.00 | 99 | 1024.2 |
| 20260903131940 | 78 | 105 | 1.0 | 2.0 | 0.00 | 0.00 | 0.00 | 99 | 1024.3 |
| 20260903131435 | 77 | 112 | 1.0 | 1.0 | 0.00 | 0.00 | 0.00 | 99 | 1024.3 |
| 20260903130934 | 77 | 117 | 0.0 | 2.0 | 0.00 | 0.00 | 0.00 | 99 | 1024.4 |
| 20260903130429 | 77 | 88 | 1.0 | 2.0 | 0.00 | 0.00 | 0.00 | 99 | 1024.4 |
| 20260903125928 | 76 | 118 | 1.0 | 1.0 | 0.00 | 0.00 | 0.00 | 99 | 1024.4 |
| 20260903125427 | 76 | 100 | 0.0 | 1.0 | 0.00 | 0.00 | 0.00 | 99 | 1024.4 |
| 20260903124927 | 76 | 101 | 0.0 | 1.0 | 0.00 | 0.00 | 0.00 | 99 | 1024.3 |
| 20260903124422 | 75 | 101 | 0.0 | 0.0 | 0.00 | 0.00 | 0.00 | 99 | 1024.5 |
| 20260903123921 | 75 | 101 | 0.0 | 0.0 | 0.00 | 0.00 | 0.00 | 99 | 1024.3 |
| 20260903123416 | 75 | 100 | 1.0 | 1.0 | 0.00 | 0.00 | 0.00 | 99 | 1024.4 |
| 20260903122915 | 74 | 104 | 0.0 | 0.0 | 0.00 | 0.00 | 0.00 | 99 | 1024.5 |
| 20260903122409 | 74 | 107 | 0.0 | 0.0 | 0.00 | 0.00 | 0.00 | 99 | 1024.5 |
| 20260903121908 | 74 | 107 | 0.0 | 0.0 | 0.00 | 0.00 | 0.00 | 99 | 1024.5 |
| 20260903121403 | 74 | 107 | 0.0 | 0.0 | 0.00 | 0.00 | 0.00 | 99 | 1024.5 |
| 20260903120900 | 74 | 107 | 0.0 | 0.0 | 0.00 | 0.00 | 0.00 | 99 | 1024.4 |
| 20260903120358 | 73 | 107 | 0.0 | 0.0 | 0.00 | 0.00 | 0.00 | 99 | 1024.7 |
| 20260903115857 | 73 | 107 | 0.0 | 0.0 | 0.00 | 0.00 | 0.00 | 99 | 1024.2 |
| 20260903115351 | 73 | 107 | 0.0 | 0.0 | 0.00 | 0.00 | 0.00 | 99 | 1024.1 |
| 20260903114846 | 73 | 107 | 0.0 | 0.0 | 0.00 | 0.00 | 0.00 | 99 | 1024.3 |
| 20260903114342 | 72 | 107 | 0.0 | 0.0 | 0.00 | 0.00 | 0.00 | 99 | 1024.0 |
| 20260903113837 | 72 | 107 | 0.0 | 0.0 | 0.00 | 0.00 | 0.00 | 99 | 1024.1 |
| 20260903113332 | 72 | 107 | 0.0 | 0.0 | 0.00 | 0.00 | 0.00 | 99 | 1023.9 |
| 20260903112829 | 72 | 107 | 0.0 | 0.0 | 0.00 | 0.00 | 0.00 | 99 | 1023.8 |
| 20260903112324 | 72 | 107 | 0.0 | 0.0 | 0.00 | 0.00 | 0.00 | 99 | 1023.8 |
| 20260903111823 | 72 | 107 | 0.0 | 0.0 | 0.00 | 0.00 | 0.00 | 99 | 1023.6 |
| 20260903111323 | 72 | 107 | 0.0 | 0.0 | 0.00 | 0.00 | 0.00 | 99 | 1023.5 |
| 20260903110819 | 72 | 115 | 0.0 | 0.0 | 0.00 | 0.00 | 0.00 | 99 | 1023.4 |
| 20260903110314 | 72 | 115 | 0.0 | 0.0 | 0.00 | 0.00 | 0.00 | 99 | 1023.4 |
| 20260903105809 | 72 | 115 | 0.0 | 0.0 | 0.00 | 0.00 | 0.00 | 99 | 1023.3 |
| 20260903105306 | 72 | 115 | 0.0 | 1.0 | 0.00 | 0.00 | 0.00 | 99 | 1023.3 |
| 20260903104758 | 72 | 115 | 0.0 | 0.0 | 0.00 | 0.00 | 0.00 | 99 | 1023.4 |
| 20260903104253 | 72 | 115 | 0.0 | 0.0 | 0.00 | 0.00 | 0.00 | 99 | 1023.3 |
| 20260903103749 | 72 | 115 | 0.0 | 1.0 | 0.00 | 0.00 | 0.00 | 99 | 1023.4 |
| 20260903103245 | 72 | 115 | 0.0 | 0.0 | 0.00 | 0.00 | 0.00 | 99 | 1023.3 |
| 20260903102741 | 72 | 115 | 1.0 | 1.0 | 0.00 | 0.00 | 0.00 | 99 | 1023.3 |
| 20260903102240 | 71 | 116 | 0.0 | 0.0 | 0.00 | 0.00 | 0.00 | 99 | 1023.2 |
| 20260903101738 | 71 | 116 | 0.0 | 0.0 | 0.00 | 0.00 | 0.00 | 99 | 1023.2 |
| 20260903101234 | 71 | 116 | 0.0 | 0.0 | 0.00 | 0.00 | 0.00 | 99 | 1023.3 |
| 20260903100729 | 71 | 115 | 1.0 | 1.0 | 0.00 | 0.00 | 0.00 | 99 | 1023.1 |
| 20260903100224 | 72 | 114 | 0.0 | 1.0 | 0.00 | 0.00 | 0.00 | 99 | 1023.1 |
| 20260903095721 | 72 | 147 | 1.0 | 2.0 | 0.00 | 0.00 | 0.00 | 99 | 1023.4 |
| 20260903095216 | 72 | 147 | 0.0 | 1.0 | 0.00 | 0.00 | 0.00 | 99 | 1023.2 |
| 20260903094711 | 72 | 147 | 1.0 | 1.0 | 0.00 | 0.00 | 0.00 | 99 | 1023.2 |
| 20260903094206 | 71 | 147 | 0.0 | 0.0 | 0.00 | 0.00 | 0.00 | 99 | 1023.1 |
| 20260903093701 | 71 | 147 | 0.0 | 0.0 | 0.00 | 0.00 | 0.00 | 99 | 1023.1 |
| 20260903093156 | 71 | 147 | 0.0 | 0.0 | 0.00 | 0.00 | 0.00 | 99 | 1023.1 |
| 20260903092651 | 71 | 147 | 0.0 | 0.0 | 0.00 | 0.00 | 0.00 | 99 | 1023.1 |
| 20260903092145 | 71 | 147 | 0.0 | 0.0 | 0.00 | 0.00 | 0.00 | 99 | 1022.9 |
| 20260903091644 | 71 | 147 | 0.0 | 0.0 | 0.00 | 0.00 | 0.00 | 99 | 1022.9 |
| 20260903091138 | 71 | 147 | 0.0 | 0.0 | 0.00 | 0.00 | 0.00 | 99 | 1022.8 |
| 20260903090634 | 71 | 147 | 0.0 | 0.0 | 0.00 | 0.00 | 0.00 | 99 | 1022.9 |
| 20260903090133 | 71 | 147 | 0.0 | 0.0 | 0.00 | 0.00 | 0.00 | 99 | 1022.8 |
| 20260903085632 | 71 | 147 | 0.0 | 0.0 | 0.00 | 0.00 | 0.00 | 99 | 1022.9 |
| 20260903085128 | 71 | 147 | 0.0 | 0.0 | 0.00 | 0.00 | 0.00 | 99 | 1022.9 |
| 20260903084625 | 71 | 147 | 0.0 | 0.0 | 0.00 | 0.00 | 0.00 | 99 | 1022.9 |
| 20260903084120 | 72 | 147 | 0.0 | 1.0 | 0.00 | 0.00 | 0.00 | 99 | 1022.8 |
| 20260903083615 | 71 | 147 | 0.0 | 0.0 | 0.00 | 0.00 | 0.00 | 99 | 1023.0 |
| 20260903083110 | 71 | 147 | 0.0 | 0.0 | 0.00 | 0.00 | 0.00 | 99 | 1022.6 |
| 20260903082604 | 72 | 147 | 0.0 | 0.0 | 0.00 | 0.00 | 0.00 | 99 | 1022.6 |
| 20260903082100 | 72 | 147 | 0.0 | 0.0 | 0.00 | 0.00 | 0.00 | 99 | 1022.8 |
| 20260903081555 | 72 | 147 | 0.0 | 0.0 | 0.00 | 0.00 | 0.00 | 99 | 1022.4 |
| 20260903081051 | 72 | 147 | 0.0 | 0.0 | 0.00 | 0.00 | 0.00 | 99 | 1022.5 |
| 20260903080547 | 72 | 147 | 0.0 | 0.0 | 0.00 | 0.00 | 0.00 | 99 | 1022.5 |
| 20260903080043 | 72 | 147 | 0.0 | 0.0 | 0.00 | 0.00 | 0.00 | 99 | 1022.4 |
| 20260903075538 | 72 | 147 | 0.0 | 1.0 | 0.00 | 0.00 | 0.00 | 99 | 1022.5 |
| 20260903075033 | 72 | 147 | 1.0 | 1.0 | 0.00 | 0.00 | 0.00 | 99 | 1022.4 |
| 20260903074532 | 72 | 147 | 0.0 | 1.0 | 0.00 | 0.00 | 0.00 | 99 | 1022.5 |
| 20260903074027 | 72 | 147 | 0.0 | 0.0 | 0.00 | 0.00 | 0.00 | 99 | 1022.5 |
| 20260903073522 | 72 | 147 | 0.0 | 0.0 | 0.00 | 0.00 | 0.00 | 99 | 1022.4 |
| 20260903073019 | 72 | 147 | 0.0 | 0.0 | 0.00 | 0.00 | 0.00 | 99 | 1022.6 |
| 20260903072514 | 72 | 147 | 1.0 | 1.0 | 0.00 | 0.00 | 0.00 | 99 | 1022.5 |
| 20260903072010 | 72 | 147 | 0.0 | 0.0 | 0.00 | 0.00 | 0.00 | 99 | 1022.6 |
| 20260903071506 | 72 | 147 | 0.0 | 0.0 | 0.00 | 0.00 | 0.00 | 99 | 1022.7 |
| 20260903071001 | 73 | 147 | 0.0 | 1.0 | 0.00 | 0.00 | 0.00 | 98 | 1022.7 |
| 20260903070455 | 73 | 147 | 0.0 | 0.0 | 0.00 | 0.00 | 0.00 | 98 | 1022.7 |
| 20260903065950 | 73 | 147 | 0.0 | 0.0 | 0.00 | 0.00 | 0.00 | 98 | 1022.5 |
| 20260903065445 | 73 | 147 | 0.0 | 0.0 | 0.00 | 0.00 | 0.00 | 98 | 1022.5 |
| 20260903064944 | 73 | 147 | 0.0 | 0.0 | 0.00 | 0.00 | 0.00 | 98 | 1022.8 |
| 20260903064439 | 73 | 147 | 0.0 | 0.0 | 0.00 | 0.00 | 0.00 | 98 | 1022.7 |
| 20260903063935 | 73 | 147 | 0.0 | 0.0 | 0.00 | 0.00 | 0.00 | 98 | 1022.7 |
| 20260903063430 | 73 | 147 | 0.0 | 0.0 | 0.00 | 0.00 | 0.00 | 98 | 1022.9 |
| 20260903062925 | 73 | 147 | 0.0 | 0.0 | 0.00 | 0.00 | 0.00 | 98 | 1023.0 |
| 20260903062420 | 73 | 147 | 0.0 | 0.0 | 0.00 | 0.00 | 0.00 | 98 | 1022.8 |
| 20260903061916 | 73 | 147 | 0.0 | 0.0 | 0.00 | 0.00 | 0.00 | 97 | 1023.0 |
| 20260903061415 | 73 | 147 | 0.0 | 0.0 | 0.00 | 0.00 | 0.00 | 97 | 1022.9 |
| 20260903060911 | 74 | 147 | 0.0 | 0.0 | 0.00 | 0.00 | 0.00 | 97 | 1023.2 |
| 20260903060411 | 74 | 147 | 0.0 | 0.0 | 0.00 | 0.00 | 0.00 | 97 | 1023.1 |
| 20260903055908 | 74 | 147 | 0.0 | 0.0 | 0.00 | 0.00 | 0.00 | 97 | 1023.3 |
| 20260903055407 | 74 | 147 | 0.0 | 1.0 | 0.00 | 0.00 | 0.00 | 97 | 1023.1 |
| 20260903054901 | 74 | 147 | 1.0 | 1.0 | 0.00 | 0.00 | 0.00 | 97 | 1023.1 |
| 20260903054356 | 74 | 147 | 0.0 | 1.0 | 0.00 | 0.00 | 0.00 | 96 | 1023.3 |
| 20260903053852 | 74 | 147 | 0.0 | 0.0 | 0.00 | 0.00 | 0.00 | 96 | 1023.2 |
| 20260903053347 | 74 | 147 | 0.0 | 0.0 | 0.00 | 0.00 | 0.00 | 96 | 1023.3 |
| 20260903052843 | 74 | 147 | 0.0 | 0.0 | 0.00 | 0.00 | 0.00 | 96 | 1023.1 |
| 20260903052338 | 75 | 147 | 0.0 | 0.0 | 0.00 | 0.00 | 0.00 | 96 | 1023.3 |
| 20260903051834 | 74 | 147 | 0.0 | 0.0 | 0.00 | 0.00 | 0.00 | 95 | 1023.4 |
| 20260903051330 | 74 | 147 | 0.0 | 0.0 | 0.00 | 0.00 | 0.00 | 95 | 1023.3 |
| 20260903050825 | 74 | 147 | 0.0 | 0.0 | 0.00 | 0.00 | 0.00 | 95 | 1023.3 |
| 20260903050324 | 74 | 147 | 0.0 | 0.0 | 0.00 | 0.00 | 0.00 | 95 | 1023.5 |
| 20260903045819 | 75 | 147 | 0.0 | 0.0 | 0.00 | 0.00 | 0.00 | 95 | 1023.6 |
| 20260903045315 | 75 | 147 | 0.0 | 0.0 | 0.00 | 0.00 | 0.00 | 94 | 1023.6 |
| 20260903044811 | 75 | 147 | 0.0 | 0.0 | 0.00 | 0.00 | 0.00 | 94 | 1023.6 |
| 20260903044306 | 75 | 147 | 0.0 | 0.0 | 0.00 | 0.00 | 0.00 | 93 | 1023.7 |
| 20260903043803 | 75 | 147 | 0.0 | 0.0 | 0.00 | 0.00 | 0.00 | 93 | 1023.5 |
| 20260903043302 | 75 | 147 | 0.0 | 0.0 | 0.00 | 0.00 | 0.00 | 92 | 1023.6 |
| 20260903042801 | 75 | 147 | 0.0 | 0.0 | 0.00 | 0.00 | 0.00 | 92 | 1023.6 |
| 20260903042257 | 75 | 147 | 0.0 | 0.0 | 0.00 | 0.00 | 0.00 | 92 | 1023.5 |
| 20260903041753 | 75 | 147 | 0.0 | 0.0 | 0.00 | 0.00 | 0.00 | 92 | 1023.8 |
| 20260903041249 | 75 | 147 | 0.0 | 0.0 | 0.00 | 0.00 | 0.00 | 91 | 1023.7 |
| 20260903040743 | 75 | 147 | 0.0 | 0.0 | 0.00 | 0.00 | 0.00 | 91 | 1023.7 |
| 20260903040242 | 76 | 147 | 0.0 | 0.0 | 0.00 | 0.00 | 0.00 | 91 | 1023.6 |
| 20260903035738 | 76 | 147 | 0.0 | 0.0 | 0.00 | 0.00 | 0.00 | 91 | 1023.7 |
| 20260903035234 | 76 | 147 | 0.0 | 0.0 | 0.00 | 0.00 | 0.00 | 91 | 1023.6 |
| 20260903034729 | 76 | 147 | 0.0 | 0.0 | 0.00 | 0.00 | 0.00 | 90 | 1023.7 |
| 20260903034225 | 76 | 147 | 0.0 | 0.0 | 0.00 | 0.00 | 0.00 | 90 | 1023.6 |
| 20260903033719 | 76 | 147 | 0.0 | 0.0 | 0.00 | 0.00 | 0.00 | 89 | 1023.8 |
| 20260903033214 | 77 | 147 | 0.0 | 0.0 | 0.00 | 0.00 | 0.00 | 89 | 1023.8 |
| 20260903032709 | 77 | 147 | 0.0 | 0.0 | 0.00 | 0.00 | 0.00 | 89 | 1024.0 |
| 20260903032204 | 77 | 147 | 0.0 | 0.0 | 0.00 | 0.00 | 0.00 | 88 | 1023.8 |
| 20260903031700 | 77 | 148 | 0.0 | 0.0 | 0.00 | 0.00 | 0.00 | 88 | 1024.1 |
| 20260903031154 | 77 | 147 | 0.0 | 0.0 | 0.00 | 0.00 | 0.00 | 88 | 1023.8 |
| 20260903030650 | 77 | 147 | 0.0 | 0.0 | 0.00 | 0.00 | 0.00 | 87 | 1023.7 |
| 20260903030145 | 77 | 148 | 0.0 | 0.0 | 0.00 | 0.00 | 0.00 | 87 | 1023.7 |
| 20260903025640 | 77 | 147 | 0.0 | 1.0 | 0.00 | 0.00 | 0.00 | 88 | 1023.7 |
| 20260903025136 | 77 | 147 | 0.0 | 0.0 | 0.00 | 0.00 | 0.00 | 88 | 1023.8 |
| 20260903024630 | 77 | 147 | 0.0 | 0.0 | 0.00 | 0.00 | 0.00 | 89 | 1023.8 |
| 20260903024124 | 77 | 147 | 1.0 | 1.0 | 0.00 | 0.00 | 0.00 | 89 | 1023.9 |
| 20260903023620 | 77 | 149 | 1.0 | 1.0 | 0.00 | 0.00 | 0.00 | 89 | 1023.9 |
| 20260903023120 | 77 | 146 | 1.0 | 1.0 | 0.00 | 0.00 | 0.00 | 89 | 1023.8 |
| 20260903022615 | 77 | 145 | 0.0 | 1.0 | 0.00 | 0.00 | 0.00 | 89 | 1023.9 |
| 20260903022114 | 77 | 145 | 0.0 | 0.0 | 0.00 | 0.00 | 0.00 | 89 | 1023.8 |
| 20260903021608 | 78 | 145 | 0.0 | 0.0 | 0.00 | 0.00 | 0.00 | 89 | 1023.7 |
| 20260903021103 | 78 | 145 | 0.0 | 0.0 | 0.00 | 0.00 | 0.00 | 89 | 1023.5 |
| 20260903020558 | 78 | 145 | 0.0 | 0.0 | 0.00 | 0.00 | 0.00 | 88 | 1023.6 |
| 20260903020058 | 78 | 145 | 0.0 | 0.0 | 0.00 | 0.00 | 0.00 | 87 | 1023.6 |
| 20260903015554 | 78 | 145 | 0.0 | 0.0 | 0.00 | 0.00 | 0.00 | 87 | 1023.6 |
| 20260903015049 | 78 | 145 | 0.0 | 1.0 | 0.00 | 0.00 | 0.00 | 87 | 1023.5 |
| 20260903014549 | 78 | 145 | 0.0 | 1.0 | 0.00 | 0.00 | 0.00 | 87 | 1023.4 |
| 20260903014038 | 78 | 142 | 0.0 | 0.0 | 0.00 | 0.00 | 0.00 | 87 | 1023.5 |
| 20260903013537 | 79 | 142 | 0.0 | 0.0 | 0.00 | 0.00 | 0.00 | 86 | 1023.5 |
| 20260903013032 | 79 | 142 | 0.0 | 0.0 | 0.00 | 0.00 | 0.00 | 85 | 1023.3 |
| 20260903012531 | 79 | 142 | 0.0 | 0.0 | 0.00 | 0.00 | 0.00 | 85 | 1023.2 |
| 20260903012031 | 79 | 142 | 0.0 | 0.0 | 0.00 | 0.00 | 0.00 | 85 | 1023.2 |
| 20260903011530 | 79 | 142 | 0.0 | 0.0 | 0.00 | 0.00 | 0.00 | 85 | 1023.1 |
| 20260903011026 | 79 | 142 | 0.0 | 0.0 | 0.00 | 0.00 | 0.00 | 85 | 1023.1 |
| 20260903010521 | 79 | 142 | 0.0 | 0.0 | 0.00 | 0.00 | 0.00 | 85 | 1023.3 |
| 20260903010020 | 80 | 142 | 0.0 | 0.0 | 0.00 | 0.00 | 0.00 | 85 | 1023.0 |
| 20260903005519 | 80 | 142 | 0.0 | 0.0 | 0.00 | 0.00 | 0.00 | 83 | 1023.0 |
| 20260903005016 | 80 | 142 | 0.0 | 0.0 | 0.00 | 0.00 | 0.00 | 82 | 1022.9 |
| 20260903004510 | 80 | 142 | 0.0 | 0.0 | 0.00 | 0.00 | 0.00 | 82 | 1022.7 |
| 20260903004006 | 81 | 142 | 0.0 | 0.0 | 0.00 | 0.00 | 0.00 | 82 | 1022.7 |
| 20260903003501 | 81 | 142 | 0.0 | 0.0 | 0.00 | 0.00 | 0.00 | 80 | 1022.7 |